N6ZQK Weather Reports


Display with metric or nautical units.
time (UTC)temp
F
wind
direction
speed
MPH
gust
MPH
rain 1hr
in
rain 24hr
in
rain mn
in
humidity
%
barometer
mb
20260904134803 54 171 3.0 9.0 0.07 0.67 0.61 94 1010.5
20260904134203 54 175 3.0 10.0 0.07 0.67 0.61 95 1010.5
20260904133604 54 170 2.0 10.0 0.07 0.67 0.61 95 1010.5
20260904133218 54 164 2.0 6.0 0.07 0.67 0.61 95 1010.5
20260904132403 54 165 2.0 7.0 0.07 0.66 0.60 95 1010.4
20260904131803 53 176 3.0 7.0 0.06 0.64 0.59 95 1010.5
20260904131203 53 170 3.0 10.0 0.06 0.64 0.59 94 1010.5
20260904130603 54 162 3.0 10.0 0.06 0.63 0.58 94 1010.4
20260904130003 54 169 3.0 10.0 0.06 0.63 0.58 94 1010.4
20260904125403 54 199 2.0 7.0 0.07 0.63 0.58 94 1010.2
20260904125017 54 203 2.0 7.0 0.05 0.61 0.56 95 1010.2
20260904124203 54 184 2.0 9.0 0.03 0.60 0.55 95 1010.3
20260904123603 54 179 4.0 12.0 0.05 0.60 0.55 94 1010.2
20260904123217 54 179 3.0 12.0 0.05 0.60 0.55 95 1010.1
20260904122403 54 192 2.0 9.0 0.05 0.59 0.53 94 1010.2
20260904121803 54 191 4.0 10.0 0.06 0.59 0.53 94 1010.1
20260904121203 54 197 4.0 10.0 0.07 0.59 0.53 94 1010.1
20260904120603 54 205 2.0 9.0 0.07 0.57 0.52 94 1010.1
20260904120004 54 213 2.0 6.0 0.08 0.57 0.52 94 1010.0
20260904115403 54 232 2.0 7.0 0.10 0.56 0.51 94 1009.9
20260904114804 54 221 3.0 14.0 0.14 0.56 0.51 94 1010.0
20260904114203 54 226 3.0 14.0 0.16 0.56 0.51 94 1010.0
20260904113818 54 222 3.0 10.0 0.17 0.55 0.50 94 1010.0
20260904113003 54 222 3.0 10.0 0.17 0.54 0.49 94 1009.7
20260904112403 54 210 3.0 12.0 0.20 0.54 0.49 94 1009.8
20260904111803 55 207 5.0 14.0 0.23 0.53 0.48 94 1009.7
20260904111204 55 215 4.0 13.0 0.25 0.52 0.46 94 1009.7
20260904110817 55 214 3.0 9.0 0.28 0.52 0.46 94 1009.7
20260904110003 55 216 4.0 13.0 0.29 0.49 0.44 94 1009.5
20260904105403 55 207 3.0 12.0 0.26 0.46 0.40 94 1009.5
20260904105018 55 206 3.0 12.0 0.23 0.43 0.38 94 1009.4
20260904104203 55 216 4.0 10.0 0.23 0.40 0.34 94 1009.4
20260904103817 55 212 4.0 14.0 0.21 0.38 0.32 94 1009.4
20260904103003 56 229 3.0 12.0 0.20 0.37 0.30 94 1009.2
20260904102403 56 226 5.0 17.0 0.18 0.34 0.28 94 1009.2
20260904101803 56 223 3.0 17.0 0.14 0.30 0.23 94 1009.1
20260904101417 56 206 2.0 7.0 0.13 0.28 0.21 94 1009.1
20260904100603 56 188 2.0 7.0 0.08 0.23 0.16 94 1009.1
20260904100003 56 182 4.0 13.0 0.06 0.21 0.14 94 1009.0
20260904095618 56 179 5.0 13.0 0.05 0.20 0.13 94 1009.0
20260904094803 56 182 3.0 12.0 0.03 0.18 0.12 94 1009.0
20260904094203 56 185 3.0 10.0 0.02 0.17 0.10 94 1009.0
20260904093603 56 180 4.0 13.0 0.02 0.17 0.10 94 1009.0
20260904093219 56 179 5.0 13.0 0.02 0.17 0.10 94 1009.0
20260904092618 56 176 5.0 13.0 0.01 0.16 0.09 94 1009.0
20260904091803 56 181 5.0 13.0 0.02 0.16 0.09 94 1009.0
20260904091417 56 184 5.0 13.0 0.01 0.15 0.08 94 1009.1
20260904090603 56 177 5.0 13.0 0.01 0.15 0.08 94 1009.1
20260904090003 56 181 5.0 12.0 0.01 0.15 0.08 94 1009.2
20260904085403 56 183 5.0 13.0 0.02 0.15 0.08 94 1009.3
20260904084803 56 175 5.0 13.0 0.02 0.15 0.08 94 1009.3
20260904084417 56 172 5.0 12.0 0.02 0.15 0.08 94 1009.4
20260904083603 56 183 5.0 13.0 0.02 0.15 0.08 94 1009.4
20260904083003 56 172 5.0 13.0 0.02 0.15 0.08 94 1009.5
20260904082403 56 176 5.0 12.0 0.03 0.15 0.08 94 1009.5
20260904081803 56 186 5.0 13.0 0.02 0.14 0.07 94 1009.5
20260904081203 56 179 4.0 13.0 0.03 0.14 0.07 94 1009.5
20260904080603 56 178 6.0 16.0 0.05 0.14 0.07 94 1009.5
20260904080003 56 180 4.0 13.0 0.07 0.14 0.07 94 1009.3
20260904075403 56 178 5.0 12.0 0.07 0.13 0.06 93 1009.2
20260904074803 56 179 4.0 10.0 0.08 0.13 0.06 93 1009.4
20260904074203 56 173 3.0 9.0 0.08 0.13 0.06 93 1009.4
20260904073603 57 182 2.0 12.0 0.09 0.13 0.06 94 1009.4
20260904073218 57 184 2.0 12.0 0.09 0.13 0.06 93 1009.5
20260904072403 56 183 3.0 12.0 0.09 0.12 0.05 93 1009.5
20260904071803 57 183 3.0 12.0 0.09 0.12 0.05 93 1009.5
20260904071203 57 180 3.0 10.0 0.08 0.10 0.03 93 1009.4
20260904070603 57 177 4.0 10.0 0.07 0.09 0.02 93 1009.5
20260904070004 57 179 4.0 10.0 0.05 0.07 0.00 93 1009.4
20260904065403 57 183 3.0 10.0 0.03 0.06 0.06 93 1009.4
20260904064803 57 186 3.0 10.0 0.02 0.05 0.05 93 1009.4
20260904064203 57 181 3.0 15.0 0.03 0.05 0.05 92 1009.4
20260904063603 57 188 5.0 14.0 0.02 0.03 0.03 92 1009.3
20260904063003 57 184 5.0 14.0 0.03 0.03 0.03 92 1009.3
20260904062403 57 183 3.0 10.0 0.02 0.02 0.02 92 1009.4
20260904061803 57 187 3.0 9.0 0.02 0.02 0.02 92 1009.4
20260904061203 57 180 3.0 9.0 0.02 0.02 0.02 92 1009.4
20260904060603 57 173 4.0 10.0 0.02 0.02 0.02 92 1009.4
20260904060004 57 172 4.0 12.0 0.02 0.02 0.02 91 1009.6
20260904055403 57 173 3.0 12.0 0.02 0.02 0.02 91 1009.6
20260904055018 57 172 3.0 9.0 0.02 0.02 0.02 91 1009.7
20260904054418 57 173 4.0 9.0 0.01 0.01 0.01 91 1009.7
20260904053603 57 174 3.0 9.0 0.01 0.01 0.01 91 1009.8
20260904053003 57 179 3.0 9.0 0.00 0.00 0.00 91 1009.8
20260904052403 57 171 3.0 9.0 0.00 0.00 0.00 90 1009.9
20260904051803 57 166 3.0 9.0 0.00 0.00 0.00 90 1009.9
20260904051203 57 167 3.0 9.0 0.00 0.00 0.00 90 1009.9
20260904050604 58 170 3.0 6.0 0.00 0.00 0.00 90 1009.9
20260904050003 58 173 2.0 6.0 0.00 0.00 0.00 90 1010.1
20260904045403 58 174 2.0 7.0 0.00 0.00 0.00 90 1010.2
20260904045018 58 172 3.0 7.0 0.00 0.00 0.00 90 1010.2
20260904044203 58 166 2.0 7.0 0.00 0.00 0.00 90 1010.3
20260904043604 58 158 2.0 7.0 0.00 0.00 0.00 92 1010.2
20260904043003 58 161 3.0 8.0 0.00 0.00 0.00 92 1010.2
20260904042403 58 162 3.0 8.0 0.00 0.00 0.00 89 1010.2
20260904041803 58 157 3.0 7.0 0.00 0.00 0.00 89 1010.2
20260904041417 58 163 3.0 7.0 0.00 0.00 0.00 89 1010.2
20260904040603 58 185 2.0 7.0 0.00 0.00 0.00 89 1010.3
20260904040003 58 196 1.0 6.0 0.00 0.00 0.00 89 1010.3
20260904035403 58 181 3.0 7.0 0.00 0.00 0.00 89 1010.2
20260904034804 58 181 3.0 7.0 0.00 0.00 0.00 89 1010.1
20260904034203 58 183 2.0 7.0 0.00 0.00 0.00 88 1010.1
20260904033603 58 185 2.0 6.0 0.00 0.00 0.00 88 1010.1
20260904033003 58 185 3.0 7.0 0.00 0.00 0.00 88 1010.1
20260904032403 58 193 3.0 10.0 0.00 0.00 0.00 87 1010.1
20260904031803 59 203 2.0 10.0 0.00 0.00 0.00 87 1010.1
20260904031203 59 209 2.0 10.0 0.00 0.00 0.00 87 1010.1
20260904030604 59 208 4.0 10.0 0.00 0.00 0.00 86 1010.0
20260904030218 59 210 4.0 10.0 0.00 0.00 0.00 86 1010.0
20260904025403 59 220 3.0 10.0 0.00 0.00 0.00 85 1010.0
20260904024804 59 218 2.0 9.0 0.00 0.00 0.00 85 1010.0
20260904024203 59 226 2.0 7.0 0.00 0.00 0.00 85 1010.0
20260904023604 59 227 3.0 10.0 0.00 0.00 0.00 85 1010.0
20260904023003 59 231 3.0 9.0 0.00 0.00 0.00 85 1010.0
20260904022403 60 239 3.0 9.0 0.00 0.00 0.00 84 1010.0
20260904021803 60 236 3.0 12.0 0.00 0.00 0.00 84 1010.0
20260904021421 60 225 3.0 12.0 0.00 0.00 0.00 84 1010.0
20260904020603 60 221 3.0 7.0 0.00 0.00 0.00 84 1010.0
20260904020003 60 223 4.0 12.0 0.00 0.00 0.00 83 1010.0
20260904015403 60 222 3.0 10.0 0.00 0.00 0.00 83 1010.1
20260904014803 60 213 3.0 9.0 0.00 0.00 0.00 83 1010.1
20260904014203 60 206 4.0 12.0 0.00 0.00 0.00 83 1010.1
20260904013604 60 210 2.0 12.0 0.00 0.00 0.00 82 1010.2
20260904013003 60 208 1.0 6.0 0.00 0.00 0.00 82 1010.2
20260904012403 60 209 2.0 9.0 0.00 0.00 0.00 82 1010.3
20260904011803 60 214 3.0 9.0 0.00 0.00 0.00 81 1010.3
20260904011203 60 213 3.0 9.0 0.00 0.00 0.00 81 1010.4
20260904010603 60 214 3.0 9.0 0.00 0.00 0.00 81 1010.5
20260904010003 60 217 1.0 6.0 0.00 0.00 0.00 81 1010.6
20260904005403 60 213 1.0 5.0 0.00 0.00 0.00 81 1010.6
20260904004803 60 222 3.0 10.0 0.00 0.00 0.00 80 1010.6
20260904004203 61 236 2.0 9.0 0.00 0.00 0.00 80 1010.6
20260904003603 61 239 3.0 9.0 0.00 0.00 0.00 80 1010.7
20260904003003 61 244 1.0 6.0 0.00 0.00 0.00 80 1010.7
20260904002617 61 207 1.0 4.0 0.00 0.00 0.00 80 1010.6
20260904001803 61 192 2.0 7.0 0.00 0.00 0.00 79 1010.7
20260904001203 61 207 3.0 6.0 0.00 0.00 0.00 79 1010.6
20260904000603 61 212 2.0 6.0 0.00 0.00 0.00 79 1010.7
20260904000003 61 216 1.0 4.0 0.00 0.00 0.00 79 1010.7
20260903235403 61 216 1.0 5.0 0.00 0.00 0.00 79 1010.7
20260903234804 61 214 1.0 5.0 0.00 0.00 0.00 79 1010.8
20260903234203 61 230 1.0 6.0 0.00 0.00 0.00 78 1010.8
20260903233817 61 229 1.0 6.0 0.00 0.00 0.00 78 1010.8
20260903233003 61 260 1.0 4.0 0.00 0.00 0.00 78 1010.9
20260903232403 61 266 1.0 4.0 0.00 0.00 0.00 77 1011.0
20260903231803 62 244 0.0 4.0 0.00 0.00 0.00 77 1010.9
20260903231203 62 233 1.0 4.0 0.00 0.00 0.00 77 1010.9
20260903230603 62 237 2.0 7.0 0.00 0.00 0.00 76 1011.0
20260903230003 62 235 3.0 10.0 0.00 0.00 0.00 75 1011.1
20260903225403 62 220 2.0 9.0 0.00 0.00 0.00 75 1011.1
20260903224803 62 230 2.0 9.0 0.00 0.00 0.00 74 1011.1
20260903224203 62 223 2.0 9.0 0.00 0.00 0.00 74 1011.2
20260903223603 62 220 3.0 10.0 0.00 0.00 0.00 73 1011.1
20260903223003 62 233 3.0 10.0 0.00 0.00 0.00 73 1011.2
20260903222618 62 226 3.0 9.0 0.00 0.00 0.00 73 1011.3
20260903221803 62 214 4.0 12.0 0.00 0.00 0.00 73 1011.4
20260903221203 63 207 5.0 12.0 0.00 0.00 0.00 71 1011.4
20260903220816 63 203 4.0 12.0 0.00 0.00 0.00 71 1011.4
20260903220003 63 238 2.0 7.0 0.00 0.00 0.00 71 1011.5
20260903215618 63 231 3.0 12.0 0.00 0.00 0.00 71 1011.6
20260903214803 63 234 4.0 13.0 0.00 0.00 0.00 71 1011.6
20260903214203 63 238 5.0 14.0 0.00 0.00 0.00 70 1011.6
20260903213603 63 234 6.0 14.0 0.00 0.00 0.00 69 1011.7
20260903213003 63 234 4.0 14.0 0.00 0.00 0.00 68 1011.7
20260903212403 63 235 4.0 14.0 0.00 0.00 0.00 68 1011.6
20260903211803 63 239 4.0 14.0 0.00 0.00 0.00 67 1011.6
20260903211203 63 229 4.0 12.0 0.00 0.00 0.00 67 1011.6
20260903210818 63 218 3.0 12.0 0.00 0.00 0.00 67 1011.6
20260903210003 63 224 4.0 13.0 0.00 0.00 0.00 67 1011.5
20260903205617 63 235 5.0 13.0 0.00 0.00 0.00 66 1011.4
20260903204803 63 237 4.0 9.0 0.00 0.00 0.00 67 1011.5
20260903204203 63 236 5.0 14.0 0.00 0.00 0.00 67 1011.5
20260903203603 63 217 5.0 14.0 0.00 0.00 0.00 67 1011.5
20260903203004 63 211 4.0 15.0 0.00 0.00 0.00 67 1011.5
20260903202403 63 210 5.0 15.0 0.00 0.00 0.00 66 1011.6
20260903201803 63 218 5.0 10.0 0.00 0.00 0.00 66 1011.6
20260903201418 63 225 3.0 10.0 0.00 0.00 0.00 65 1011.8
20260903200603 64 222 4.0 15.0 0.00 0.00 0.00 63 1011.8
20260903200003 64 214 5.0 15.0 0.00 0.00 0.00 63 1011.9
20260903195617 64 219 5.0 15.0 0.00 0.00 0.00 61 1011.9
20260903194803 64 221 4.0 12.0 0.00 0.00 0.00 61 1012.0
20260903194203 64 201 4.0 14.0 0.00 0.00 0.00 62 1012.1
20260903193603 64 187 5.0 13.0 0.00 0.00 0.00 61 1012.0
20260903193003 64 183 6.0 13.0 0.00 0.00 0.00 62 1012.0
20260903192403 63 200 6.0 19.0 0.00 0.00 0.00 62 1012.2
20260903191803 63 225 4.0 16.0 0.00 0.00 0.00 61 1012.2
20260903191203 63 191 4.0 13.0 0.00 0.00 0.00 62 1012.3
20260903190603 63 182 7.0 16.0 0.00 0.00 0.00 61 1012.5
20260903190004 63 196 7.0 18.0 0.00 0.00 0.00 60 1012.4
20260903185619 63 206 7.0 18.0 0.00 0.00 0.00 61 1012.5
20260903184803 63 204 5.0 14.0 0.00 0.00 0.00 60 1012.6
20260903184203 63 185 4.0 13.0 0.00 0.00 0.00 61 1012.6
20260903183603 63 185 4.0 15.0 0.00 0.00 0.00 61 1012.5
20260903183003 62 190 5.0 15.0 0.00 0.00 0.00 61 1012.8
20260903182403 62 186 4.0 14.0 0.00 0.00 0.00 61 1013.1
20260903181803 62 178 6.0 14.0 0.00 0.00 0.00 61 1013.0
20260903181204 62 188 5.0 13.0 0.00 0.00 0.00 61 1013.0
20260903180603 61 203 4.0 12.0 0.00 0.00 0.00 61 1013.0
20260903180003 61 184 4.0 12.0 0.00 0.00 0.00 61 1012.7
20260903175403 61 155 3.0 9.0 0.00 0.00 0.00 60 1012.8
20260903174804 60 171 2.0 7.0 0.00 0.00 0.00 61 1012.7
20260903174203 60 166 3.0 9.0 0.00 0.00 0.00 61 1012.9
20260903173603 60 153 2.0 8.0 0.00 0.00 0.00 61 1012.9
20260903173003 60 145 1.0 6.0 0.00 0.00 0.00 62 1012.9
20260903172403 59 157 2.0 10.0 0.00 0.00 0.00 61 1012.9
20260903171803 59 165 2.0 10.0 0.00 0.00 0.00 63 1013.0
20260903171203 59 178 3.0 9.0 0.00 0.00 0.00 62 1013.1
20260903170817 59 187 3.0 9.0 0.00 0.00 0.00 61 1013.1
20260903170218 59 182 2.0 7.0 0.00 0.00 0.00 63 1013.1
20260903165403 59 176 2.0 5.0 0.00 0.00 0.00 61 1013.1
20260903164803 59 176 1.0 6.0 0.00 0.00 0.00 62 1013.0
20260903164203 59 173 1.0 6.0 0.00 0.00 0.00 62 1013.1
20260903163604 59 170 2.0 6.0 0.00 0.00 0.00 63 1013.2
20260903163003 58 165 2.0 6.0 0.00 0.00 0.00 62 1013.2
20260903162403 58 163 3.0 10.0 0.00 0.00 0.00 64 1013.3
20260903161803 58 165 3.0 10.0 0.00 0.00 0.00 63 1013.3
20260903161203 58 165 2.0 7.0 0.00 0.00 0.00 65 1013.3
20260903160603 58 167 1.0 7.0 0.00 0.00 0.00 63 1013.3
20260903160003 58 156 3.0 10.0 0.00 0.00 0.00 63 1013.4
20260903155403 58 149 2.0 10.0 0.00 0.00 0.00 65 1013.4
20260903154803 58 142 2.0 7.0 0.00 0.00 0.00 67 1013.4
20260903154203 58 137 2.0 7.0 0.00 0.00 0.00 67 1013.4
20260903153603 58 135 2.0 7.0 0.00 0.00 0.00 68 1013.4
20260903153004 58 130 2.0 9.0 0.00 0.00 0.00 69 1013.4
20260903152403 58 130 3.0 9.0 0.00 0.00 0.00 68 1013.3
20260903151803 57 132 3.0 9.0 0.00 0.00 0.00 69 1013.3
20260903151203 57 123 2.0 8.0 0.00 0.00 0.00 70 1013.2
20260903150603 57 128 3.0 10.0 0.00 0.00 0.00 71 1013.2
20260903150003 57 134 3.0 10.0 0.00 0.00 0.00 71 1013.0
20260903145403 57 129 3.0 9.0 0.00 0.00 0.00 71 1013.1
20260903145017 57 126 3.0 9.0 0.00 0.00 0.00 71 1013.1
20260903144203 56 125 3.0 9.0 0.00 0.00 0.00 71 1013.1
20260903143603 56 125 3.0 9.0 0.00 0.00 0.00 71 1013.2
20260903143004 56 126 3.0 10.0 0.00 0.00 0.00 71 1013.1
20260903142403 56 127 3.0 10.0 0.00 0.00 0.00 71 1013.1
20260903141803 56 128 2.0 6.0 0.00 0.00 0.00 72 1013.1
20260903141418 56 129 2.0 6.0 0.00 0.00 0.00 72 1013.1
20260903140818 56 130 3.0 7.0 0.00 0.00 0.00 72 1013.1
20260903140003 56 133 4.0 7.0 0.00 0.00 0.00 72 1012.7
20260903135403 56 135 3.0 7.0 0.00 0.00 0.00 73 1012.6